Starlink 3584

operational
NORAD ID: 51885 Int'l Des: 2022-022 Owner: SPXS Country: US Constellation: starlink
LEOCIRCULAR

About Starlink 3584

Description loading...

Live Position

Loading 3D Globe...

Upcoming Passes

Altitude History

Altitude vs Time

uPlot chart will show altitude changes over time

Two-Line Element Set

1 51885U 22022AK 26015.77047286 .00000751 00000-0 65265-4 0 9991
2 51885 53.2167 236.6870 0001339 92.3311 267.7834 15.08835365215256
Epoch: Jan 15, 2026 • Age: 9 hours

Current Status

Altitude 539.7 km
Velocity 7.60 km/s
Sub-Earth Point 18.52°N, 121.9°W
Launch Date Mar 3, 2022
Age 3.8 years
Type internet

Technical Details

Classification Payload
Mass 297.00 kg
Dry Mass 275.00 kg
Total Mass 297.00 kg
Length 0.20 m
Diameter 2.80 m
Span 9.00 m
Shape Box + pan
Manufacturer SPXS
Bus Type Starlink
Phase Status In Orbit
Owner/State SPXS/US

Large Constellations

Loading constellations...